TimeEST,TemperatureF,Dew PointF,Humidity,Sea Level PressureIn,VisibilityMPH,Wind Direction,Wind SpeedMPH,Gust SpeedMPH,PrecipitationIn,Events,Conditions,WindDirDegrees,DateUTC
12:32 AM,24.8,17.6,74,30.19,10.0,West,17.3,-,N/A,,Scattered Clouds,260,2013-12-13 05:32:00
12:53 AM,25.0,18.0,75,30.23,10.0,West,16.1,-,N/A,,Scattered Clouds,260,2013-12-13 05:53:00
1:53 AM,19.0,12.9,77,30.22,9.0,South,8.1,-,N/A,,Mostly Cloudy,170,2013-12-13 06:53:00
2:53 AM,17.1,12.0,81,30.21,9.0,South,8.1,-,N/A,,Overcast,190,2013-12-13 07:53:00
3:31 AM,15.8,12.2,86,30.17,9.0,SSW,5.8,-,N/A,,Scattered Clouds,200,2013-12-13 08:31:00
3:53 AM,16.0,12.0,84,30.21,8.0,Calm,Calm,-,N/A,,Scattered Clouds,0,2013-12-13 08:53:00
4:53 AM,16.0,12.0,84,30.19,8.0,South,4.6,-,N/A,,Overcast,190,2013-12-13 09:53:00
5:53 AM,17.1,12.9,84,30.20,8.0,SSW,5.8,-,N/A,,Overcast,200,2013-12-13 10:53:00
6:53 AM,17.1,12.9,84,30.20,7.0,SSE,3.5,-,N/A,,Overcast,160,2013-12-13 11:53:00
7:53 AM,16.0,12.0,84,30.21,7.0,SSE,4.6,-,N/A,,Overcast,160,2013-12-13 12:53:00
8:36 AM,15.8,12.2,86,30.18,6.0,South,3.5,-,N/A,,Partly Cloudy,190,2013-12-13 13:36:00
8:53 AM,17.1,12.0,81,30.22,6.0,Calm,Calm,-,N/A,,Haze,0,2013-12-13 13:53:00
9:07 AM,17.6,12.2,79,30.19,6.0,South,3.5,-,N/A,,Haze,180,2013-12-13 14:07:00
9:53 AM,19.0,12.9,77,30.23,6.0,South,4.6,-,N/A,,Haze,170,2013-12-13 14:53:00
10:53 AM,21.9,15.1,75,30.22,6.0,SE,3.5,-,N/A,,Haze,140,2013-12-13 15:53:00
11:33 AM,24.8,17.6,74,30.19,6.0,South,4.6,-,N/A,,Haze,170,2013-12-13 16:33:00
11:53 AM,23.0,17.1,78,30.21,6.0,SSE,5.8,-,N/A,,Haze,160,2013-12-13 16:53:00
12:53 PM,25.0,17.1,72,30.19,6.0,South,4.6,-,N/A,,Haze,170,2013-12-13 17:53:00
1:53 PM,28.0,21.0,75,30.17,7.0,Calm,Calm,-,N/A,,Clear,0,2013-12-13 18:53:00
2:53 PM,30.0,21.0,69,30.17,9.0,East,5.8,-,N/A,,Clear,90,2013-12-13 19:53:00
3:53 PM,28.9,19.9,69,30.18,8.0,East,5.8,-,N/A,,Clear,90,2013-12-13 20:53:00
4:53 PM,28.0,19.9,72,30.17,7.0,ENE,5.8,-,N/A,,Clear,70,2013-12-13 21:53:00
5:53 PM,28.0,19.9,72,30.18,8.0,East,6.9,-,N/A,,Clear,80,2013-12-13 22:53:00
6:53 PM,27.0,19.9,75,30.19,8.0,East,9.2,-,N/A,,Clear,90,2013-12-13 23:53:00
7:53 PM,27.0,19.9,75,30.20,7.0,East,8.1,-,N/A,,Overcast,90,2013-12-14 00:53:00
8:53 PM,27.0,19.9,75,30.21,7.0,East,10.4,-,N/A,,Overcast,90,2013-12-14 01:53:00
9:53 PM,27.0,19.9,75,30.19,7.0,East,8.1,-,N/A,,Overcast,80,2013-12-14 02:53:00
10:53 PM,27.0,19.9,75,30.18,6.0,East,9.2,-,N/A,,Haze,80,2013-12-14 03:53:00
11:53 PM,27.0,19.9,75,30.18,6.0,East,10.4,-,N/A,,Haze,80,2013-12-14 04:53:00